Time,TemperatureF,DewpointF,PressureIn,WindDirection,WindDirectionDegrees,WindSpeedMPH,WindSpeedGustMPH,Humidity,HourlyPrecipIn,Conditions,Clouds,dailyrainin,SoftwareType,DateUTC
2013-03-17 00:04:00,31.1,27.8,30.14,NE,53,3.6,4.0,88,0.00,,CLR,0.00,VWS V14.01,2013-03-17 05:04:00,
2013-03-17 00:09:00,31.1,27.8,30.14,NNE,19,0.0,5.4,88,0.00,,CLR,0.00,VWS V14.01,2013-03-17 05:09:00,
2013-03-17 00:14:00,31.1,27.8,30.14,ENE,62,2.7,4.0,88,0.00,,CLR,0.00,VWS V14.01,2013-03-17 05:14:00,
2013-03-17 00:19:00,30.9,27.6,30.14,NE,51,2.7,5.4,88,0.00,,CLR,0.00,VWS V14.01,2013-03-17 05:19:00,
2013-03-17 00:24:00,30.9,27.6,30.14,NE,35,3.6,4.0,88,0.00,,CLR,0.00,VWS V14.01,2013-03-17 05:24:00,
2013-03-17 00:29:00,30.7,27.5,30.14,NNE,32,0.0,5.4,88,0.00,,CLR,0.00,VWS V14.01,2013-03-17 05:29:00,
2013-03-17 00:34:00,30.7,27.5,30.14,NNW,346,0.0,3.6,88,0.00,,CLR,0.00,VWS V14.01,2013-03-17 05:34:00,
2013-03-17 00:39:00,30.6,27.3,30.14,NNE,17,2.2,4.9,88,0.00,,CLR,0.00,VWS V14.01,2013-03-17 05:39:00,
2013-03-17 00:44:00,30.6,27.3,30.14,NE,41,0.0,4.0,88,0.00,,SCT120,0.00,VWS V14.01,2013-03-17 05:44:00,
2013-03-17 00:49:00,30.6,27.3,30.14,NNW,332,2.7,7.6,88,0.00,,SCT120,0.00,VWS V14.01,2013-03-17 05:49:00,
2013-03-17 00:54:00,30.6,27.3,30.14,North,350,0.0,4.0,88,0.00,,SCT120,0.00,VWS V14.01,2013-03-17 05:54:00,
2013-03-17 00:59:00,30.4,27.1,30.14,NE,41,3.6,5.8,88,0.00,,SCT120,0.00,VWS V14.01,2013-03-17 05:59:00,
2013-03-17 01:04:00,30.4,27.1,30.14,NNE,16,0.0,2.2,88,0.00,,SCT120,0.00,VWS V14.01,2013-03-17 06:04:00,
2013-03-17 01:10:00,30.2,26.9,30.14,NNE,18,4.9,5.4,88,0.00,,SCT120,0.00,VWS V14.01,2013-03-17 06:10:00,
2013-03-17 01:15:00,30.2,26.9,30.14,NNE,28,4.9,4.9,88,0.00,,SCT120,0.00,VWS V14.01,2013-03-17 06:15:00,
2013-03-17 01:20:00,30.2,26.9,30.11,NNW,346,2.7,5.4,88,0.00,,SCT120,0.00,VWS V14.01,2013-03-17 06:20:00,
2013-03-17 01:25:00,30.2,26.9,30.11,NNW,345,3.6,5.4,88,0.00,,SCT120,0.00,VWS V14.01,2013-03-17 06:25:00,
2013-03-17 01:30:00,30.2,26.9,30.11,North,353,3.6,3.6,88,0.00,,SCT120,0.00,VWS V14.01,2013-03-17 06:30:00,
2013-03-17 01:35:00,30.2,26.9,30.11,North,0,0.0,4.9,88,0.00,,SCT120,0.00,VWS V14.01,2013-03-17 06:35:00,
2013-03-17 01:40:00,30.2,26.9,30.11,North,350,3.6,5.4,88,0.00,,SCT120,0.00,VWS V14.01,2013-03-17 06:40:00,
2013-03-17 01:45:00,30.2,26.9,30.11,NNW,345,2.7,2.7,88,0.00,,SCT120,0.00,VWS V14.01,2013-03-17 06:45:00,
2013-03-17 01:50:00,30.0,26.8,30.11,NE,43,6.7,7.2,88,0.00,,SCT120,0.00,VWS V14.01,2013-03-17 06:50:00,
2013-03-17 01:55:00,30.0,26.8,30.11,North,0,3.1,3.1,88,0.00,,SCT120,0.00,VWS V14.01,2013-03-17 06:55:00,
2013-03-17 02:00:00,30.0,26.8,30.11,North,0,4.9,8.1,88,0.00,,CLR,0.00,VWS V14.01,2013-03-17 07:00:00,
2013-03-17 02:05:00,30.0,26.8,30.11,North,353,4.0,4.0,88,0.00,,CLR,0.00,VWS V14.01,2013-03-17 07:05:00,
2013-03-17 02:10:00,30.0,26.8,30.11,North,7,3.1,3.1,88,0.00,,CLR,0.00,VWS V14.01,2013-03-17 07:10:00,
2013-03-17 02:15:00,30.0,26.8,30.11,North,353,4.0,4.0,88,0.00,,CLR,0.00,VWS V14.01,2013-03-17 07:15:00,
2013-03-17 02:21:00,30.0,26.8,30.11,North,357,2.7,3.1,88,0.00,,CLR,0.00,VWS V14.01,2013-03-17 07:21:00,
2013-03-17 02:26:00,30.0,26.8,30.11,NNE,31,3.6,5.8,88,0.00,,CLR,0.00,VWS V14.01,2013-03-17 07:26:00,
2013-03-17 02:31:00,30.2,26.9,30.11,NNE,26,3.1,8.1,88,0.00,,CLR,0.00,VWS V14.01,2013-03-17 07:31:00,
2013-03-17 02:36:00,30.2,26.9,30.11,NNE,15,0.0,5.8,88,0.00,,CLR,0.00,VWS V14.01,2013-03-17 07:36:00,
2013-03-17 02:41:00,30.2,26.9,30.11,NNE,32,4.0,6.3,88,0.00,,SCT120,0.00,VWS V14.01,2013-03-17 07:41:00,
2013-03-17 02:46:00,30.2,26.9,30.11,North,0,5.4,5.8,88,0.00,,SCT120,0.00,VWS V14.01,2013-03-17 07:46:00,
2013-03-17 02:52:00,30.2,26.9,30.11,North,1,4.9,5.8,88,0.00,,SCT120,0.00,VWS V14.01,2013-03-17 07:52:00,
2013-03-17 02:57:00,30.2,26.9,30.11,NNW,343,5.4,8.3,88,0.00,,SCT120,0.00,VWS V14.01,2013-03-17 07:57:00,
2013-03-17 03:02:00,30.2,26.9,30.11,NW,326,5.4,8.3,88,0.00,,SCT120,0.00,VWS V14.01,2013-03-17 08:02:00,
2013-03-17 03:07:00,30.2,26.9,30.11,North,353,3.1,6.3,88,0.00,,SCT120,0.00,VWS V14.01,2013-03-17 08:07:00,
2013-03-17 03:12:00,30.2,26.9,30.11,NE,39,4.9,10.5,88,0.00,,SCT120,0.00,VWS V14.01,2013-03-17 08:12:00,
2013-03-17 03:17:00,30.4,27.1,30.11,NNE,18,5.4,5.8,88,0.00,,SCT120,0.00,VWS V14.01,2013-03-17 08:17:00,
2013-03-17 03:22:00,30.4,27.1,30.11,North,0,5.4,8.1,88,0.00,,BKN120,0.00,VWS V14.01,2013-03-17 08:22:00,
2013-03-17 03:27:00,30.4,27.1,30.11,NNW,331,0.0,5.4,88,0.00,,BKN120,0.00,VWS V14.01,2013-03-17 08:27:00,
2013-03-17 03:32:00,30.4,27.1,30.11,NNE,19,3.1,9.6,88,0.00,,BKN120,0.00,VWS V14.01,2013-03-17 08:32:00,
2013-03-17 03:38:00,30.4,27.1,30.11,NNW,346,4.9,8.3,88,0.00,,BKN120,0.00,VWS V14.01,2013-03-17 08:38:00,
2013-03-17 03:43:00,30.4,27.1,30.11,North,357,5.4,10.1,88,0.00,,OVC110,0.00,VWS V14.01,2013-03-17 08:43:00,
2013-03-17 03:48:00,30.4,27.1,30.11,NNW,334,0.0,8.1,88,0.00,,OVC110,0.00,VWS V14.01,2013-03-17 08:48:00,
2013-03-17 03:53:00,30.4,27.1,30.11,North,11,5.8,12.3,88,0.00,,OVC110,0.00,VWS V14.01,2013-03-17 08:53:00,
2013-03-17 03:58:00,30.6,27.3,30.11,North,0,4.9,8.1,88,0.00,,OVC110,0.00,VWS V14.01,2013-03-17 08:58:00,
2013-03-17 04:03:00,30.6,27.3,30.11,NNE,22,5.4,12.8,88,0.00,,OVC110,0.00,VWS V14.01,2013-03-17 09:03:00,
2013-03-17 04:08:00,30.6,27.3,30.11,North,5,4.0,7.6,88,0.00,,OVC110,0.00,VWS V14.01,2013-03-17 09:08:00,
2013-03-17 04:13:00,30.6,27.3,30.11,NNE,29,5.4,8.3,88,0.00,,OVC110,0.00,VWS V14.01,2013-03-17 09:13:00,
2013-03-17 04:18:00,30.4,27.1,30.09,North,10,5.8,5.8,88,0.00,,OVC110,0.00,VWS V14.01,2013-03-17 09:18:00,
2013-03-17 04:23:00,30.4,27.1,30.09,North,9,8.3,8.3,88,0.00,,OVC110,0.00,VWS V14.01,2013-03-17 09:23:00,
2013-03-17 04:28:00,30.4,27.1,30.09,NNW,345,5.4,7.6,88,0.00,,OVC110,0.00,VWS V14.01,2013-03-17 09:28:00,
2013-03-17 04:33:00,30.4,27.1,30.11,North,353,0.0,8.7,88,0.00,,OVC110,0.00,VWS V14.01,2013-03-17 09:33:00,
2013-03-17 04:38:00,30.4,27.1,30.11,NNE,22,3.1,5.8,88,0.00,,OVC110,0.00,VWS V14.01,2013-03-17 09:38:00,
2013-03-17 04:43:00,30.4,27.1,30.11,NNE,29,0.0,3.6,88,0.00,,BKN110,0.00,VWS V14.01,2013-03-17 09:43:00,
2013-03-17 04:48:00,30.6,27.3,30.14,NNE,28,3.1,6.3,88,0.00,,BKN110,0.00,VWS V14.01,2013-03-17 09:48:00,
2013-03-17 04:53:00,30.4,27.1,30.14,NE,36,0.0,5.8,88,0.00,,BKN110,0.00,VWS V14.01,2013-03-17 09:53:00,
2013-03-17 04:58:00,30.4,27.1,30.14,NE,38,0.0,5.8,88,0.00,,BKN110,0.00,VWS V14.01,2013-03-17 09:58:00,
2013-03-17 05:03:00,30.2,26.9,30.14,North,2,4.9,8.3,88,0.00,,BKN110,0.00,VWS V14.01,2013-03-17 10:03:00,
2013-03-17 05:08:00,30.2,26.9,30.14,NE,43,5.4,10.5,88,0.00,,BKN110,0.00,VWS V14.01,2013-03-17 10:08:00,
2013-03-17 05:14:00,30.2,26.9,30.14,East,84,3.1,6.3,88,0.00,,BKN110,0.00,VWS V14.01,2013-03-17 10:14:00,
2013-03-17 05:19:00,30.2,26.9,30.14,North,2,2.2,4.9,88,0.00,,BKN110,0.00,VWS V14.01,2013-03-17 10:19:00,
2013-03-17 05:24:00,30.2,26.9,30.14,NNE,23,2.7,8.7,88,0.00,,BKN110,0.00,VWS V14.01,2013-03-17 10:24:00,
2013-03-17 05:29:00,30.0,26.8,30.14,NNE,14,4.0,7.6,88,0.00,,BKN110,0.00,VWS V14.01,2013-03-17 10:29:00,
2013-03-17 05:34:00,30.0,26.8,30.14,NNE,22,3.1,8.3,88,0.00,,BKN110,0.00,VWS V14.01,2013-03-17 10:34:00,
2013-03-17 05:39:00,30.0,26.8,30.14,NE,42,0.0,8.3,88,0.00,,OVC110,0.00,VWS V14.01,2013-03-17 10:39:00,
2013-03-17 05:44:00,30.0,26.8,30.14,NNE,19,5.8,8.1,88,0.00,,OVC110,0.00,VWS V14.01,2013-03-17 10:44:00,
2013-03-17 05:49:00,29.8,26.6,30.14,NNE,23,0.0,10.5,88,0.00,,OVC110,0.00,VWS V14.01,2013-03-17 10:49:00,
2013-03-17 05:54:00,29.7,26.4,30.14,NNE,22,3.1,6.3,88,0.00,,OVC110,0.00,VWS V14.01,2013-03-17 10:54:00,
2013-03-17 05:59:00,29.7,26.4,30.14,NE,48,3.6,9.6,88,0.00,,OVC110,0.00,VWS V14.01,2013-03-17 10:59:00,
2013-03-17 06:04:00,29.7,26.4,30.14,NE,38,3.6,5.8,88,0.00,,SCT110,0.00,VWS V14.01,2013-03-17 11:04:00,
2013-03-17 06:09:00,29.7,26.4,30.14,North,3,3.1,12.8,88,0.00,,SCT110,0.00,VWS V14.01,2013-03-17 11:09:00,
2013-03-17 06:14:00,29.7,26.4,30.14,SSE,152,0.0,8.7,88,0.00,,SCT110,0.00,VWS V14.01,2013-03-17 11:14:00,
2013-03-17 06:20:00,29.7,26.4,30.14,East,82,2.7,6.3,88,0.00,,SCT110,0.00,VWS V14.01,2013-03-17 11:20:00,
2013-03-17 06:25:00,29.7,26.4,30.14,NNE,22,5.4,10.5,88,0.00,,CLR,0.00,VWS V14.01,2013-03-17 11:25:00,
2013-03-17 06:30:00,29.7,26.4,30.17,NE,47,3.6,9.6,88,0.00,,CLR,0.00,VWS V14.01,2013-03-17 11:30:00,
2013-03-17 06:35:00,29.7,26.4,30.17,North,4,7.2,7.6,88,0.00,,CLR,0.00,VWS V14.01,2013-03-17 11:35:00,
2013-03-17 06:40:00,29.7,26.4,30.17,NE,36,4.0,7.2,88,0.00,,SCT120,0.00,VWS V14.01,2013-03-17 11:40:00,
2013-03-17 06:45:00,29.7,26.4,30.17,ESE,104,3.6,9.6,88,0.00,,SCT120,0.00,VWS V14.01,2013-03-17 11:45:00,
2013-03-17 06:50:00,29.7,26.4,30.17,NE,39,5.4,6.3,88,0.00,,SCT120,0.00,VWS V14.01,2013-03-17 11:50:00,
2013-03-17 06:55:00,29.7,26.4,30.17,North,0,5.4,6.3,88,0.00,,SCT120,0.00,VWS V14.01,2013-03-17 11:55:00,
2013-03-17 07:00:00,29.7,26.4,30.17,NE,38,5.8,5.8,88,0.00,,SCT120,0.00,VWS V14.01,2013-03-17 12:00:00,
2013-03-17 07:05:00,29.7,26.4,30.17,ENE,59,5.4,8.3,88,0.00,,OVC120,0.00,VWS V14.01,2013-03-17 12:05:00,
2013-03-17 07:10:00,29.7,26.4,30.17,East,82,3.1,6.3,88,0.00,,OVC120,0.00,VWS V14.01,2013-03-17 12:10:00,
2013-03-17 07:15:00,29.7,26.4,30.17,North,1,6.3,6.3,88,0.00,,OVC120,0.00,VWS V14.01,2013-03-17 12:15:00,
2013-03-17 07:20:00,29.7,26.4,30.17,North,1,3.1,5.8,88,0.00,,OVC110,0.00,VWS V14.01,2013-03-17 12:20:00,
2013-03-17 07:26:00,29.7,26.4,30.17,ENE,63,4.9,4.9,88,0.00,,OVC110,0.00,VWS V14.01,2013-03-17 12:26:00,
2013-03-17 07:31:00,29.7,26.4,30.17,NW,305,5.4,5.8,88,0.00,,OVC110,0.00,VWS V14.01,2013-03-17 12:31:00,
2013-03-17 07:36:00,29.7,26.4,30.17,North,0,2.7,7.6,88,0.00,,OVC110,0.00,VWS V14.01,2013-03-17 12:36:00,
2013-03-17 07:41:00,29.7,26.4,30.17,NE,56,0.0,5.4,88,0.00,,OVC110,0.00,VWS V14.01,2013-03-17 12:41:00,
2013-03-17 07:46:00,29.7,26.4,30.17,NE,49,3.1,4.9,88,0.00,,OVC110,0.00,VWS V14.01,2013-03-17 12:46:00,
2013-03-17 07:51:00,29.8,26.6,30.17,ENE,57,4.9,5.4,88,0.00,,OVC110,0.00,VWS V14.01,2013-03-17 12:51:00,
2013-03-17 07:57:00,29.8,26.6,30.17,ENE,58,2.7,5.4,88,0.00,,OVC110,0.00,VWS V14.01,2013-03-17 12:57:00,
2013-03-17 08:02:00,29.8,26.6,30.17,NE,56,8.1,8.1,88,0.00,,OVC025,0.00,VWS V14.01,2013-03-17 13:02:00,
2013-03-17 08:07:00,29.8,26.6,30.17,NE,42,2.7,5.4,88,0.00,,OVC025,0.00,VWS V14.01,2013-03-17 13:07:00,
2013-03-17 08:12:00,30.0,26.8,30.17,ENE,61,3.1,6.3,88,0.00,,OVC025,0.00,VWS V14.01,2013-03-17 13:12:00,
2013-03-17 08:17:00,30.0,26.8,30.17,NE,41,3.6,6.7,88,0.00,,OVC025,0.00,VWS V14.01,2013-03-17 13:17:00,
2013-03-17 08:22:00,30.2,26.9,30.17,NE,45,5.8,8.1,88,0.00,,OVC025,0.00,VWS V14.01,2013-03-17 13:22:00,
2013-03-17 08:27:00,30.2,26.9,30.17,NE,41,6.7,9.2,88,0.00,,OVC025,0.00,VWS V14.01,2013-03-17 13:27:00,
2013-03-17 08:32:00,30.2,26.9,30.17,North,357,6.3,8.7,88,0.00,,OVC025,0.00,VWS V14.01,2013-03-17 13:32:00,
2013-03-17 08:38:00,30.4,27.1,30.17,ENE,72,3.6,12.3,88,0.00,,OVC025,0.00,VWS V14.01,2013-03-17 13:38:00,
2013-03-17 08:43:00,30.6,27.3,30.17,NNE,18,0.0,7.6,88,0.00,,BKN025,0.00,VWS V14.01,2013-03-17 13:43:00,
2013-03-17 08:48:00,30.6,27.3,30.17,NNW,342,5.4,5.4,88,0.00,,BKN025,0.00,VWS V14.01,2013-03-17 13:48:00,
2013-03-17 08:53:00,30.6,27.3,30.17,NNE,32,4.9,5.4,88,0.00,,BKN025,0.00,VWS V14.01,2013-03-17 13:53:00,
2013-03-17 08:58:00,30.6,27.3,30.17,ENE,67,4.0,4.9,88,0.00,,BKN025,0.00,VWS V14.01,2013-03-17 13:58:00,
2013-03-17 09:03:00,30.7,27.5,30.20,NE,55,0.0,4.0,88,0.00,,BKN025,0.00,VWS V14.01,2013-03-17 14:03:00,
2013-03-17 09:08:00,30.9,27.6,30.20,ESE,112,7.2,10.1,88,0.00,,BKN025,0.00,VWS V14.01,2013-03-17 14:08:00,
2013-03-17 09:13:00,30.9,27.6,30.20,East,84,4.9,8.3,88,0.00,,BKN025,0.00,VWS V14.01,2013-03-17 14:13:00,
2013-03-17 09:18:00,30.9,27.6,30.17,East,94,6.3,9.6,88,0.00,,BKN025,0.00,VWS V14.01,2013-03-17 14:18:00,
2013-03-17 09:23:00,30.9,27.6,30.17,East,86,7.6,8.7,88,0.00,,OVC020,0.00,VWS V14.01,2013-03-17 14:23:00,
2013-03-17 09:28:00,30.9,27.6,30.17,ESE,118,5.4,8.1,88,0.00,,OVC020,0.00,VWS V14.01,2013-03-17 14:28:00,
2013-03-17 09:33:00,31.1,27.8,30.17,NE,38,4.5,6.3,88,0.00,,OVC020,0.00,VWS V14.01,2013-03-17 14:33:00,
2013-03-17 09:38:00,31.1,27.8,30.17,East,90,3.1,8.7,88,0.00,,OVC020,0.00,VWS V14.01,2013-03-17 14:38:00,
2013-03-17 09:43:00,31.1,27.8,30.17,NE,51,6.3,6.3,88,0.00,,OVC020,0.00,VWS V14.01,2013-03-17 14:43:00,
2013-03-17 09:48:00,31.3,28.0,30.17,ENE,64,8.1,10.1,88,0.00,,OVC020,0.00,VWS V14.01,2013-03-17 14:48:00,
2013-03-17 09:53:00,31.6,28.4,30.17,ESE,112,2.7,5.4,88,0.00,,OVC020,0.00,VWS V14.01,2013-03-17 14:53:00,
2013-03-17 09:58:00,32.0,28.7,30.17,ESE,120,2.7,5.8,88,0.00,,OVC020,0.00,VWS V14.01,2013-03-17 14:58:00,
2013-03-17 10:04:00,32.2,28.9,30.17,East,84,3.1,8.3,88,0.00,,OVC020,0.00,VWS V14.01,2013-03-17 15:04:00,
2013-03-17 10:09:00,32.2,28.9,30.17,ESE,114,8.3,8.3,88,0.00,,OVC020,0.00,VWS V14.01,2013-03-17 15:09:00,
2013-03-17 10:14:00,32.2,28.9,30.17,ENE,64,5.8,7.2,88,0.00,,OVC020,0.00,VWS V14.01,2013-03-17 15:14:00,
2013-03-17 10:19:00,32.2,28.9,30.20,SSE,160,5.4,8.7,88,0.00,,OVC020,0.00,VWS V14.01,2013-03-17 15:19:00,
2013-03-17 10:24:00,32.4,29.1,30.20,NE,49,5.4,8.3,88,0.00,,OVC020,0.00,VWS V14.01,2013-03-17 15:24:00,
2013-03-17 10:29:00,32.5,29.2,30.20,East,80,8.3,8.3,88,0.00,,OVC020,0.00,VWS V14.01,2013-03-17 15:29:00,
2013-03-17 10:34:00,32.7,29.4,30.17,SE,133,8.3,8.3,88,0.00,,OVC020,0.00,VWS V14.01,2013-03-17 15:34:00,
2013-03-17 10:39:00,32.9,29.6,30.17,ENE,74,4.5,10.5,88,0.00,,OVC020,0.00,VWS V14.01,2013-03-17 15:39:00,
2013-03-17 10:44:00,33.1,29.8,30.17,NE,42,3.1,10.1,88,0.00,,OVC020,0.00,VWS V14.01,2013-03-17 15:44:00,
2013-03-17 10:49:00,33.3,30.0,30.17,East,91,4.0,9.6,88,0.00,,OVC020,0.00,VWS V14.01,2013-03-17 15:49:00,
2013-03-17 10:54:00,33.3,30.0,30.17,East,88,6.3,11.0,88,0.00,,OVC020,0.00,VWS V14.01,2013-03-17 15:54:00,
2013-03-17 10:59:00,33.4,30.1,30.17,East,89,8.7,8.7,88,0.00,,OVC020,0.00,VWS V14.01,2013-03-17 15:59:00,
2013-03-17 11:04:00,33.4,30.1,30.17,North,2,4.0,8.7,88,0.00,,OVC020,0.00,VWS V14.01,2013-03-17 16:04:00,
2013-03-17 11:09:00,33.6,30.3,30.17,ESE,105,4.5,7.6,88,0.00,,OVC020,0.00,VWS V14.01,2013-03-17 16:09:00,
2013-03-17 11:14:00,33.8,30.5,30.17,ENE,76,8.1,10.1,88,0.00,,OVC020,0.00,VWS V14.01,2013-03-17 16:14:00,
2013-03-17 11:19:00,33.8,30.5,30.17,ENE,60,8.3,8.7,88,0.00,,OVC020,0.00,VWS V14.01,2013-03-17 16:19:00,
2013-03-17 11:24:00,33.8,30.5,30.17,ESE,115,4.0,10.1,88,0.00,,OVC022,0.00,VWS V14.01,2013-03-17 16:24:00,
2013-03-17 11:30:00,34.0,30.7,30.17,ENE,78,8.3,8.7,88,0.00,,OVC022,0.00,VWS V14.01,2013-03-17 16:30:00,
2013-03-17 11:35:00,34.2,30.8,30.17,SE,124,7.6,9.6,88,0.00,,OVC022,0.00,VWS V14.01,2013-03-17 16:35:00,
2013-03-17 11:40:00,34.5,31.2,30.17,NE,52,5.4,11.9,88,0.00,,OVC022,0.00,VWS V14.01,2013-03-17 16:40:00,
2013-03-17 11:45:00,34.7,31.4,30.17,ENE,57,6.3,12.8,88,0.00,,OVC022,0.00,VWS V14.01,2013-03-17 16:45:00,
2013-03-17 11:50:00,34.7,31.4,30.17,East,89,4.9,11.0,88,0.00,,OVC022,0.00,VWS V14.01,2013-03-17 16:50:00,
2013-03-17 11:55:00,34.7,31.4,30.17,East,91,3.1,8.1,88,0.00,,OVC022,0.00,VWS V14.01,2013-03-17 16:55:00,
2013-03-17 12:00:00,34.7,31.4,30.17,NNE,27,3.1,11.4,88,0.00,,OVC022,0.00,VWS V14.01,2013-03-17 17:00:00,
2013-03-17 12:05:00,34.7,31.4,30.17,NE,48,8.3,8.3,88,0.00,,OVC022,0.00,VWS V14.01,2013-03-17 17:05:00,
2013-03-17 12:10:00,34.7,31.4,30.17,East,99,5.8,5.8,88,0.00,,OVC022,0.00,VWS V14.01,2013-03-17 17:10:00,
2013-03-17 12:15:00,34.9,31.5,30.17,ENE,70,7.6,8.3,88,0.00,,OVC022,0.00,VWS V14.01,2013-03-17 17:15:00,
2013-03-17 12:20:00,34.9,31.5,30.17,SE,128,3.1,10.1,88,0.00,,OVC022,0.00,VWS V14.01,2013-03-17 17:20:00,
2013-03-17 12:25:00,35.1,31.7,30.17,East,99,3.1,4.9,88,0.00,,OVC022,0.00,VWS V14.01,2013-03-17 17:25:00,
2013-03-17 12:30:00,35.2,31.9,30.14,ESE,119,4.5,4.9,88,0.00,,OVC022,0.00,VWS V14.01,2013-03-17 17:30:00,
2013-03-17 12:35:00,35.6,31.2,30.14,NNE,33,4.0,8.1,84,0.00,,OVC022,0.00,VWS V14.01,2013-03-17 17:35:00,
2013-03-17 12:40:00,35.6,31.2,30.14,East,84,3.6,5.8,84,0.00,,OVC020,0.00,VWS V14.01,2013-03-17 17:40:00,
2013-03-17 12:45:00,35.6,31.2,30.14,ENE,70,5.8,8.7,84,0.00,,OVC020,0.00,VWS V14.01,2013-03-17 17:45:00,
2013-03-17 12:51:00,35.6,31.2,30.14,ENE,63,5.8,8.7,84,0.00,,OVC020,0.00,VWS V14.01,2013-03-17 17:51:00,
2013-03-17 12:56:00,35.6,31.2,30.14,ENE,66,6.3,8.1,84,0.00,,OVC020,0.00,VWS V14.01,2013-03-17 17:56:00,
2013-03-17 13:01:00,35.6,31.2,30.14,ESE,123,4.0,5.8,84,0.00,,BKN022,0.00,VWS V14.01,2013-03-17 18:01:00,
2013-03-17 13:06:00,35.6,31.2,30.14,NNE,24,10.1,12.8,84,0.00,,BKN022,0.00,VWS V14.01,2013-03-17 18:06:00,
2013-03-17 13:11:00,35.4,32.1,30.14,East,95,3.6,7.6,88,0.00,,BKN022,0.00,VWS V14.01,2013-03-17 18:11:00,
2013-03-17 13:16:00,35.8,31.4,30.14,ENE,69,3.1,10.5,84,0.00,,BKN022,0.00,VWS V14.01,2013-03-17 18:16:00,
2013-03-17 13:21:00,35.8,31.4,30.14,ESE,120,7.6,10.1,84,0.00,,BKN024,0.00,VWS V14.01,2013-03-17 18:21:00,
2013-03-17 13:26:00,35.6,31.2,30.14,ESE,122,5.8,6.3,84,0.00,,BKN024,0.00,VWS V14.01,2013-03-17 18:26:00,
2013-03-17 13:31:00,35.6,31.2,30.14,NNE,33,4.9,5.8,84,0.00,,BKN024,0.00,VWS V14.01,2013-03-17 18:31:00,
2013-03-17 13:36:00,36.0,31.6,30.14,NE,45,8.1,8.1,84,0.00,,BKN024,0.00,VWS V14.01,2013-03-17 18:36:00,
2013-03-17 13:41:00,36.1,31.8,30.14,NNE,26,6.3,10.1,84,0.00,,BKN024,0.00,VWS V14.01,2013-03-17 18:41:00,
2013-03-17 13:47:00,36.1,31.8,30.14,ENE,70,6.3,8.3,84,0.00,,BKN026,0.00,VWS V14.01,2013-03-17 18:47:00,
2013-03-17 13:52:00,36.1,31.8,30.14,ENE,57,4.0,5.8,84,0.00,,BKN026,0.00,VWS V14.01,2013-03-17 18:52:00,
2013-03-17 13:57:00,36.1,31.8,30.14,ESE,115,4.0,11.0,84,0.00,,BKN026,0.00,VWS V14.01,2013-03-17 18:57:00,
2013-03-17 14:02:00,36.0,31.6,30.11,NE,47,5.8,7.6,84,0.00,,BKN026,0.00,VWS V14.01,2013-03-17 19:02:00,
2013-03-17 14:07:00,35.8,31.4,30.11,ENE,78,5.4,10.1,84,0.00,,BKN026,0.00,VWS V14.01,2013-03-17 19:07:00,
2013-03-17 14:12:00,35.8,31.4,30.11,ENE,63,6.7,10.5,84,0.00,,BKN026,0.00,VWS V14.01,2013-03-17 19:12:00,
2013-03-17 14:17:00,36.0,31.6,30.11,East,100,5.4,8.3,84,0.00,,BKN026,0.00,VWS V14.01,2013-03-17 19:17:00,
2013-03-17 14:22:00,36.3,32.0,30.11,East,85,7.6,8.1,84,0.00,,BKN026,0.00,VWS V14.01,2013-03-17 19:22:00,
2013-03-17 14:27:00,36.5,32.1,30.11,ESE,109,4.0,6.3,84,0.00,,BKN026,0.00,VWS V14.01,2013-03-17 19:27:00,
2013-03-17 14:33:00,36.7,32.3,30.11,NE,46,5.4,12.8,84,0.00,,BKN026,0.00,VWS V14.01,2013-03-17 19:33:00,
2013-03-17 14:38:00,36.7,32.3,30.11,NE,47,8.7,10.1,84,0.00,,BKN026,0.00,VWS V14.01,2013-03-17 19:38:00,
2013-03-17 14:43:00,36.7,32.3,30.11,SE,142,7.2,10.1,84,0.00,,BKN026,0.00,VWS V14.01,2013-03-17 19:43:00,
2013-03-17 14:48:00,37.4,33.0,30.09,SSE,157,5.4,8.1,84,0.00,,BKN026,0.00,VWS V14.01,2013-03-17 19:48:00,
2013-03-17 14:53:00,37.9,33.5,30.09,ESE,115,5.8,7.6,84,0.00,,BKN026,0.00,VWS V14.01,2013-03-17 19:53:00,
2013-03-17 14:58:00,37.9,33.5,30.09,ENE,60,8.3,11.4,84,0.00,,BKN026,0.00,VWS V14.01,2013-03-17 19:58:00,
2013-03-17 15:03:00,37.8,33.4,30.09,ENE,58,4.0,8.1,84,0.00,,BKN026,0.00,VWS V14.01,2013-03-17 20:03:00,
2013-03-17 15:08:00,37.9,33.5,30.09,ENE,67,4.9,10.1,84,0.00,,BKN026,0.00,VWS V14.01,2013-03-17 20:08:00,
2013-03-17 15:13:00,37.9,33.5,30.09,East,93,4.0,8.7,84,0.00,,BKN026,0.00,VWS V14.01,2013-03-17 20:13:00,
2013-03-17 15:18:00,37.9,33.5,30.09,ENE,60,7.6,10.1,84,0.00,,BKN026,0.00,VWS V14.01,2013-03-17 20:18:00,
2013-03-17 15:23:00,37.6,33.2,30.09,NNE,19,11.0,11.0,84,0.00,,BKN028,0.00,VWS V14.01,2013-03-17 20:23:00,
2013-03-17 15:28:00,37.4,33.0,30.09,ESE,102,8.7,11.0,84,0.00,,BKN028,0.00,VWS V14.01,2013-03-17 20:28:00,
2013-03-17 15:33:00,37.4,33.0,30.09,ENE,57,6.3,11.4,84,0.00,,BKN028,0.00,VWS V14.01,2013-03-17 20:33:00,
2013-03-17 15:38:00,37.2,32.8,30.09,East,85,5.4,8.7,84,0.00,,BKN028,0.00,VWS V14.01,2013-03-17 20:38:00,
2013-03-17 15:43:00,37.4,33.0,30.09,East,96,5.8,8.7,84,0.00,,BKN028,0.00,VWS V14.01,2013-03-17 20:43:00,
2013-03-17 15:48:00,37.4,33.0,30.09,North,3,7.6,8.3,84,0.00,,BKN028,0.00,VWS V14.01,2013-03-17 20:48:00,
2013-03-17 15:53:00,37.8,33.4,30.09,East,93,6.3,8.1,84,0.00,,BKN028,0.00,VWS V14.01,2013-03-17 20:53:00,
2013-03-17 15:58:00,37.9,33.5,30.09,ENE,59,7.6,8.7,84,0.00,,BKN028,0.00,VWS V14.01,2013-03-17 20:58:00,
2013-03-17 16:03:00,37.8,33.4,30.09,East,90,6.3,11.0,84,0.00,,BKN028,0.00,VWS V14.01,2013-03-17 21:03:00,
2013-03-17 16:09:00,37.4,33.0,30.09,ENE,64,5.4,11.4,84,0.00,,BKN028,0.00,VWS V14.01,2013-03-17 21:09:00,
2013-03-17 16:14:00,37.2,32.8,30.09,ESE,109,4.0,8.1,84,0.00,,BKN028,0.00,VWS V14.01,2013-03-17 21:14:00,
2013-03-17 16:19:00,37.2,32.8,30.09,ESE,112,4.0,10.5,84,0.00,,BKN028,0.00,VWS V14.01,2013-03-17 21:19:00,
2013-03-17 16:24:00,37.0,32.7,30.09,East,82,8.1,8.1,84,0.00,,SCT070,0.00,VWS V14.01,2013-03-17 21:24:00,
2013-03-17 16:29:00,37.0,32.7,30.09,ENE,59,8.1,10.5,84,0.00,,SCT070,0.00,VWS V14.01,2013-03-17 21:29:00,
2013-03-17 16:34:00,36.9,32.5,30.09,ESE,108,3.1,6.3,84,0.00,,SCT070,0.00,VWS V14.01,2013-03-17 21:34:00,
2013-03-17 16:39:00,36.9,32.5,30.09,SE,137,10.1,11.0,84,0.00,,SCT070,0.00,VWS V14.01,2013-03-17 21:39:00,
2013-03-17 16:44:00,36.5,32.1,30.09,ENE,62,5.4,9.2,84,0.00,,BKN090,0.00,VWS V14.01,2013-03-17 21:44:00,
2013-03-17 16:49:00,36.3,32.0,30.09,ESE,116,5.8,13.2,84,0.00,,BKN090,0.00,VWS V14.01,2013-03-17 21:49:00,
2013-03-17 16:54:00,36.1,31.8,30.09,NE,49,3.1,13.2,84,0.00,,BKN090,0.00,VWS V14.01,2013-03-17 21:54:00,
2013-03-17 16:59:00,36.1,31.8,30.09,ENE,59,3.1,9.6,84,0.00,,BKN090,0.00,VWS V14.01,2013-03-17 21:59:00,
2013-03-17 17:04:00,36.1,31.8,30.09,NW,320,8.3,10.5,84,0.00,,OVC090,0.00,VWS V14.01,2013-03-17 22:04:00,
2013-03-17 17:09:00,36.1,31.8,30.09,ENE,69,5.8,10.1,84,0.00,,OVC090,0.00,VWS V14.01,2013-03-17 22:09:00,
2013-03-17 17:14:00,36.1,31.8,30.09,ESE,107,5.4,11.0,84,0.00,,OVC090,0.00,VWS V14.01,2013-03-17 22:14:00,
2013-03-17 17:19:00,36.1,31.8,30.06,ENE,69,5.8,8.7,84,0.00,,OVC090,0.00,VWS V14.01,2013-03-17 22:19:00,
2013-03-17 17:25:00,36.1,31.8,30.06,NE,48,5.8,10.5,84,0.00,,OVC090,0.00,VWS V14.01,2013-03-17 22:25:00,
2013-03-17 17:30:00,36.1,31.8,30.06,NE,53,7.6,10.1,84,0.00,,OVC090,0.00,VWS V14.01,2013-03-17 22:30:00,
2013-03-17 17:35:00,36.1,31.8,30.06,ENE,72,7.6,12.3,84,0.00,,OVC090,0.00,VWS V14.01,2013-03-17 22:35:00,
2013-03-17 17:40:00,36.1,31.8,30.06,NE,53,5.4,10.1,84,0.00,,OVC090,0.00,VWS V14.01,2013-03-17 22:40:00,
2013-03-17 17:45:00,36.1,31.8,30.06,NE,48,6.3,8.3,84,0.00,,OVC090,0.00,VWS V14.01,2013-03-17 22:45:00,
2013-03-17 17:50:00,36.0,31.6,30.06,ENE,57,5.4,8.7,84,0.00,,OVC090,0.00,VWS V14.01,2013-03-17 22:50:00,
2013-03-17 17:55:00,35.8,31.4,30.06,East,97,7.6,10.1,84,0.00,,OVC090,0.00,VWS V14.01,2013-03-17 22:55:00,
2013-03-17 18:00:00,35.8,31.4,30.06,ESE,102,2.2,11.0,84,0.00,,OVC090,0.00,VWS V14.01,2013-03-17 23:00:00,
2013-03-17 18:05:00,35.8,31.4,30.06,ENE,71,4.0,4.0,84,0.00,,OVC080,0.00,VWS V14.01,2013-03-17 23:05:00,
2013-03-17 18:10:00,35.6,31.2,30.06,East,98,4.9,4.9,84,0.00,,OVC080,0.00,VWS V14.01,2013-03-17 23:10:00,
2013-03-17 18:15:00,35.6,31.2,30.06,NE,41,3.6,3.6,84,0.00,,OVC080,0.00,VWS V14.01,2013-03-17 23:15:00,
2013-03-17 18:20:00,35.4,32.1,30.03,ENE,77,7.6,10.1,88,0.00,,OVC080,0.00,VWS V14.01,2013-03-17 23:20:00,
2013-03-17 18:25:00,35.4,32.1,30.03,ENE,75,10.1,10.1,88,0.00,,OVC070,0.00,VWS V14.01,2013-03-17 23:25:00,
2013-03-17 18:30:00,35.2,31.9,30.03,ENE,73,7.6,7.6,88,0.00,,OVC070,0.00,VWS V14.01,2013-03-17 23:30:00,
2013-03-17 18:35:00,35.1,31.7,30.03,NE,34,5.4,6.3,88,0.00,,OVC070,0.00,VWS V14.01,2013-03-17 23:35:00,
2013-03-17 18:40:00,35.1,31.7,30.03,North,5,5.8,5.8,88,0.00,,OVC070,0.00,VWS V14.01,2013-03-17 23:40:00,
2013-03-17 18:45:00,34.9,31.5,30.03,East,84,4.0,7.6,88,0.00,,OVC070,0.00,VWS V14.01,2013-03-17 23:45:00,
2013-03-17 18:51:00,34.9,31.5,30.03,NE,47,7.6,7.6,88,0.00,,OVC070,0.00,VWS V14.01,2013-03-17 23:51:00,
2013-03-17 18:56:00,34.7,31.4,30.03,East,86,3.6,4.0,88,0.00,,OVC070,0.00,VWS V14.01,2013-03-17 23:56:00,
2013-03-17 19:01:00,34.7,31.4,30.03,NE,56,6.3,7.2,88,0.00,,OVC070,0.00,VWS V14.01,2013-03-18 00:01:00,
2013-03-17 19:06:00,34.5,31.2,30.03,NE,46,3.6,10.1,88,0.00,,OVC070,0.00,VWS V14.01,2013-03-18 00:06:00,
2013-03-17 19:11:00,34.5,31.2,30.03,ESE,107,5.4,7.6,88,0.00,,OVC070,0.00,VWS V14.01,2013-03-18 00:11:00,
2013-03-17 19:16:00,34.5,31.2,30.03,East,86,5.4,6.3,88,0.00,,OVC070,0.00,VWS V14.01,2013-03-18 00:16:00,
2013-03-17 19:21:00,34.5,31.2,30.03,NE,44,7.6,7.6,88,0.00,,OVC070,0.00,VWS V14.01,2013-03-18 00:21:00,
2013-03-17 19:26:00,34.5,31.2,30.03,ENE,64,3.1,8.1,88,0.00,,OVC070,0.00,VWS V14.01,2013-03-18 00:26:00,
2013-03-17 19:32:00,34.5,31.2,30.03,NE,46,11.0,11.0,88,0.00,,OVC070,0.00,VWS V14.01,2013-03-18 00:32:00,
2013-03-17 19:37:00,34.5,31.2,30.03,East,85,9.6,10.1,88,0.00,,OVC070,0.00,VWS V14.01,2013-03-18 00:37:00,
2013-03-17 19:42:00,34.3,31.0,30.03,East,81,8.1,8.1,88,0.00,,OVC070,0.00,VWS V14.01,2013-03-18 00:42:00,
2013-03-17 19:47:00,34.3,31.0,30.03,NE,44,8.7,8.7,88,0.00,,OVC070,0.00,VWS V14.01,2013-03-18 00:47:00,
2013-03-17 19:52:00,34.3,31.0,30.03,NE,34,4.0,10.5,88,0.00,,OVC070,0.00,VWS V14.01,2013-03-18 00:52:00,
2013-03-17 19:57:00,34.2,30.8,30.03,ENE,70,7.6,8.3,88,0.00,,OVC070,0.00,VWS V14.01,2013-03-18 00:57:00,
2013-03-17 20:02:00,34.2,30.8,30.00,ENE,61,8.1,11.4,88,0.00,,OVC070,0.00,VWS V14.01,2013-03-18 01:02:00,
2013-03-17 20:07:00,34.0,30.7,30.00,ENE,57,5.8,10.5,88,0.00,,OVC070,0.00,VWS V14.01,2013-03-18 01:07:00,
2013-03-17 20:12:00,34.0,30.7,30.00,NE,52,10.5,10.5,88,0.00,,OVC070,0.00,VWS V14.01,2013-03-18 01:12:00,
2013-03-17 20:17:00,34.0,30.7,30.00,ENE,67,7.6,12.8,88,0.00,,OVC070,0.00,VWS V14.01,2013-03-18 01:17:00,
2013-03-17 20:22:00,34.0,30.7,30.00,NE,39,4.0,10.5,88,0.00,,OVC070,0.00,VWS V14.01,2013-03-18 01:22:00,
2013-03-17 20:27:00,34.0,30.7,30.00,ENE,67,3.6,8.3,88,0.00,,OVC070,0.00,VWS V14.01,2013-03-18 01:27:00,
2013-03-17 20:32:00,34.0,30.7,30.03,East,82,7.6,11.0,88,0.00,,OVC070,0.00,VWS V14.01,2013-03-18 01:32:00,
2013-03-17 20:38:00,34.0,30.7,30.03,ENE,61,5.8,12.3,88,0.00,,OVC070,0.00,VWS V14.01,2013-03-18 01:38:00,
2013-03-17 20:43:00,34.0,30.7,30.03,North,0,8.1,8.7,88,0.00,,OVC040,0.00,VWS V14.01,2013-03-18 01:43:00,
2013-03-17 20:48:00,34.0,30.7,30.03,NE,50,5.4,8.7,88,0.00,,OVC040,0.00,VWS V14.01,2013-03-18 01:48:00,
2013-03-17 20:53:00,34.0,30.7,30.03,ENE,63,8.3,10.1,88,0.00,,OVC040,0.00,VWS V14.01,2013-03-18 01:53:00,
2013-03-17 20:58:00,33.8,30.5,30.03,SE,125,8.1,10.1,88,0.00,,OVC040,0.00,VWS V14.01,2013-03-18 01:58:00,
2013-03-17 21:03:00,33.8,30.5,30.00,ESE,110,3.1,11.0,88,0.00,,OVC034,0.00,VWS V14.01,2013-03-18 02:03:00,
2013-03-17 21:08:00,33.8,30.5,30.00,NE,46,2.7,8.3,88,0.00,,OVC034,0.00,VWS V14.01,2013-03-18 02:08:00,
2013-03-17 21:13:00,33.8,30.5,30.00,ESE,103,5.4,11.4,88,0.00,,OVC034,0.00,VWS V14.01,2013-03-18 02:13:00,
2013-03-17 21:18:00,33.8,30.5,30.00,NE,44,7.6,13.2,88,0.00,,OVC034,0.00,VWS V14.01,2013-03-18 02:18:00,
2013-03-17 21:23:00,33.6,30.3,30.00,NNE,18,3.1,8.3,88,0.00,,OVC034,0.00,VWS V14.01,2013-03-18 02:23:00,
2013-03-17 21:28:00,33.6,30.3,30.00,NNE,19,3.6,9.6,88,0.00,,OVC032,0.00,VWS V14.01,2013-03-18 02:28:00,
2013-03-17 21:33:00,33.6,30.3,30.00,NNE,25,2.7,9.6,88,0.00,,OVC032,0.00,VWS V14.01,2013-03-18 02:33:00,
2013-03-17 21:38:00,33.6,30.3,30.00,East,82,7.2,11.0,88,0.00,,OVC032,0.00,VWS V14.01,2013-03-18 02:38:00,
2013-03-17 21:43:00,33.8,30.5,30.00,East,81,9.6,9.6,88,0.00,,OVC030,0.00,VWS V14.01,2013-03-18 02:43:00,
2013-03-17 21:48:00,33.8,30.5,30.00,East,81,3.6,9.6,88,0.00,,OVC030,0.00,VWS V14.01,2013-03-18 02:48:00,
2013-03-17 21:53:00,33.8,30.5,30.00,NE,55,5.4,6.3,88,0.00,,OVC030,0.00,VWS V14.01,2013-03-18 02:53:00,
2013-03-17 21:58:00,33.8,30.5,30.00,ENE,65,5.4,7.6,88,0.00,,OVC030,0.00,VWS V14.01,2013-03-18 02:58:00,
2013-03-17 22:03:00,33.8,30.5,29.97,NE,54,4.9,9.6,88,0.00,,OVC028,0.00,VWS V14.01,2013-03-18 03:03:00,
2013-03-17 22:08:00,33.8,30.5,29.97,NNE,16,2.7,8.1,88,0.00,,OVC028,0.00,VWS V14.01,2013-03-18 03:08:00,
2013-03-17 22:13:00,33.8,30.5,29.97,NNE,33,2.7,8.1,88,0.00,,OVC028,0.00,VWS V14.01,2013-03-18 03:13:00,
2013-03-17 22:18:00,33.8,30.5,29.97,NE,48,5.8,8.1,88,0.00,,OVC028,0.00,VWS V14.01,2013-03-18 03:18:00,
2013-03-17 22:24:00,33.8,30.5,29.97,NE,42,3.6,8.3,88,0.00,,OVC028,0.00,VWS V14.01,2013-03-18 03:24:00,
2013-03-17 22:29:00,33.8,30.5,29.97,North,3,3.6,9.6,88,0.00,,-RA,0.00,VWS V14.01,2013-03-18 03:29:00,
2013-03-17 22:34:00,34.0,30.7,29.97,ENE,72,3.6,8.3,88,0.00,,-RA,0.00,VWS V14.01,2013-03-18 03:34:00,
2013-03-17 22:39:00,34.0,30.7,29.97,ESE,115,4.9,7.6,88,0.00,,OVC026,0.00,VWS V14.01,2013-03-18 03:39:00,
2013-03-17 22:44:00,34.0,30.7,29.97,ENE,59,4.0,11.0,88,0.00,,OVC026,0.00,VWS V14.01,2013-03-18 03:44:00,
2013-03-17 22:49:00,34.0,30.7,29.97,East,81,8.7,11.9,88,0.00,,OVC026,0.00,VWS V14.01,2013-03-18 03:49:00,
2013-03-17 22:54:00,34.0,30.7,29.97,ENE,59,4.0,8.1,88,0.00,,OVC026,0.00,VWS V14.01,2013-03-18 03:54:00,
2013-03-17 22:59:00,34.0,30.7,29.97,NE,36,8.7,8.7,88,0.00,,OVC026,0.00,VWS V14.01,2013-03-18 03:59:00,
2013-03-17 23:00:00,34.0,30.7,29.97,NE,37,4.9,8.7,88,0.00,,OVC026,0.00,VWS V14.01,2013-03-18 04:00:00,
2013-03-17 23:04:00,34.0,30.7,29.97,ENE,63,3.6,9.6,88,0.00,,OVC024,0.00,VWS V14.01,2013-03-18 04:04:00,
2013-03-17 23:09:00,34.0,30.7,29.97,East,88,2.7,10.1,88,0.00,,OVC024,0.00,VWS V14.01,2013-03-18 04:09:00,
2013-03-17 23:14:00,34.0,30.7,29.97,ESE,120,5.4,12.3,88,0.00,,OVC024,0.00,VWS V14.01,2013-03-18 04:14:00,
2013-03-17 23:19:00,34.0,30.7,29.94,East,90,8.1,10.1,88,0.00,,OVC024,0.00,VWS V14.01,2013-03-18 04:19:00,
2013-03-17 23:24:00,34.0,30.7,29.94,ESE,106,4.9,7.2,88,0.00,,OVC024,0.00,VWS V14.01,2013-03-18 04:24:00,
2013-03-17 23:30:00,33.8,30.5,29.94,NE,45,2.2,6.3,88,0.00,,OVC024,0.00,VWS V14.01,2013-03-18 04:30:00,
2013-03-17 23:35:00,33.8,30.5,29.94,NE,47,2.7,8.7,88,0.00,,OVC024,0.00,VWS V14.01,2013-03-18 04:35:00,
2013-03-17 23:40:00,33.8,30.5,29.94,NE,54,3.1,10.1,88,0.00,,OVC024,0.00,VWS V14.01,2013-03-18 04:40:00,
2013-03-17 23:45:00,33.8,30.5,29.94,NE,35,4.9,4.9,88,0.00,,OVC024,0.00,VWS V14.01,2013-03-18 04:45:00,
2013-03-17 23:50:00,33.8,30.5,29.94,ENE,75,6.3,6.3,88,0.00,,OVC024,0.00,VWS V14.01,2013-03-18 04:50:00,
2013-03-17 23:55:00,33.8,30.5,29.94,NE,43,6.3,7.6,88,0.00,,OVC024,0.00,VWS V14.01,2013-03-18 04:55:00,